Вернуться в каталог

STARLINK-34319

АктивенСвязьVLEO
NORAD 64268·PAYLOAD·🇺🇸 United States

Запущен Jun 4, 2025 с Vandenberg Space Force Base

Loading…

Ближайшие Пролёты (ближайшие 24 часа)

TLE

СвежийSource: CelesTrak SupGP

Эпоха: Sep 15, 2026, 03:00 UTC

1 64268C 25120N   26258.12548611  .00036573  00000+0  10805-2 0  2584
2 64268  53.1584 311.1943 0001279  90.7175  76.9652 15.34372953    12

Отслеживайте STARLINK-34319 в реальном времени с AllMySat

Download on the App Store